DW8231 Weather Reports


Display with metric or nautical units.
time (UTC)temp
F
wind
direction
speed
MPH
gust
MPH
rain 1hr
in
rain 24hr
in
rain mn
in
humidity
%
barometer
mb
20260905120027 67 19 0.0 0.0 0.00 0.00 0.00 94 1014.0
20260905115527 67 18 0.0 0.0 0.00 0.00 0.00 94 1014.0
20260905115027 67 18 0.0 0.0 0.00 0.00 0.00 94 1013.9
20260905114525 67 17 0.0 0.0 0.00 0.00 0.00 94 1013.8
20260905114030 67 17 0.0 0.0 0.00 0.00 0.00 94 1014.0
20260905113526 67 16 0.0 0.0 0.00 0.00 0.00 94 1013.9
20260905113024 67 16 0.0 0.0 0.00 0.00 0.00 94 1013.8
20260905112526 67 17 0.0 0.0 0.00 0.00 0.00 94 1013.7
20260905112024 67 17 0.0 0.0 0.00 0.00 0.00 94 1013.7
20260905111524 67 17 0.0 0.0 0.00 0.00 0.00 94 1013.6
20260905111025 67 16 0.0 0.0 0.00 0.00 0.00 94 1013.6
20260905110026 67 16 0.0 0.0 0.00 0.00 0.00 94 1013.5
20260905105525 67 16 0.0 0.0 0.00 0.00 0.00 94 1013.6
20260905105025 67 16 0.0 0.0 0.00 0.00 0.00 94 1013.6
20260905104526 67 15 0.0 0.0 0.00 0.00 0.00 94 1013.5
20260905104029 67 15 0.0 0.0 0.00 0.00 0.00 94 1013.4
20260905103525 67 15 0.0 0.0 0.00 0.00 0.00 94 1013.4
20260905103025 67 15 0.0 0.0 0.00 0.00 0.00 94 1013.4
20260905102524 67 15 0.0 0.0 0.00 0.00 0.00 94 1013.7
20260905102024 67 15 0.0 0.0 0.00 0.00 0.00 94 1013.7
20260905101526 67 15 0.0 0.0 0.00 0.00 0.00 94 1013.4
20260905101023 66 15 0.0 0.0 0.00 0.00 0.00 94 1013.0
20260905100024 66 15 0.0 0.0 0.00 0.00 0.00 94 1012.8
20260905095523 66 15 0.0 0.0 0.00 0.00 0.00 94 1012.6
20260905095023 66 19 0.0 0.0 0.00 0.00 0.00 94 1012.6
20260905094524 66 19 0.0 0.0 0.00 0.00 0.00 94 1012.7
20260905094023 66 11 0.0 0.0 0.00 0.00 0.00 94 1012.7
20260905093523 66 11 0.0 0.0 0.00 0.00 0.00 94 1012.7
20260905093023 66 30 0.0 0.0 0.00 0.00 0.00 94 1012.7
20260905092522 66 31 0.0 0.0 0.00 0.00 0.00 94 1012.7
20260905092022 66 35 0.0 0.0 0.00 0.00 0.00 94 1012.9
20260905091523 66 5 0.0 0.0 0.00 0.00 0.00 94 1012.9
20260905091021 66 10 0.0 0.0 0.00 0.00 0.00 94 1012.8
20260905090023 66 28 0.0 0.0 0.00 0.00 0.00 94 1013.1
20260905085523 66 51 0.0 0.0 0.00 0.00 0.00 93 1013.1
20260905085022 66 42 0.0 0.0 0.00 0.00 0.00 93 1013.2
20260905084522 66 28 0.0 0.0 0.00 0.00 0.00 93 1013.2
20260905084022 66 17 0.0 0.0 0.00 0.00 0.00 93 1013.2
20260905083522 66 35 0.0 0.0 0.00 0.00 0.00 93 1013.3
20260905083025 66 35 0.0 0.0 0.00 0.00 0.00 93 1013.4
20260905082522 66 29 0.0 0.0 0.00 0.00 0.00 93 1013.3
20260905082022 66 49 0.0 0.0 0.00 0.00 0.00 93 1013.2
20260905081528 66 40 0.0 0.0 0.00 0.00 0.00 93 1013.2
20260905081021 66 20 0.0 0.0 0.00 0.00 0.00 93 1013.1
20260905080022 66 39 0.0 0.0 0.00 0.00 0.00 93 1013.1
20260905075522 66 24 0.0 0.0 0.00 0.00 0.00 93 1013.2
20260905075021 66 22 0.0 0.0 0.00 0.00 0.00 93 1013.2
20260905074530 66 22 0.0 0.0 0.00 0.00 0.00 93 1013.3
20260905074022 66 22 0.0 0.0 0.00 0.00 0.00 93 1013.4
20260905073521 66 22 0.0 0.0 0.00 0.00 0.00 93 1013.4
20260905073020 66 22 0.0 0.0 0.00 0.00 0.00 93 1013.4
20260905072520 66 22 0.0 0.0 0.00 0.00 0.00 92 1013.3
20260905072022 66 22 0.0 0.0 0.00 0.00 0.00 93 1013.3
20260905071519 66 22 0.0 0.0 0.00 0.00 0.00 92 1013.4
20260905071021 66 22 0.0 0.0 0.00 0.00 0.00 92 1013.3
20260905070019 66 22 0.0 0.0 0.00 0.00 0.00 92 1013.4
20260905065518 67 22 0.0 0.0 0.00 0.00 0.00 92 1013.5
20260905065018 67 22 0.0 0.0 0.00 0.00 0.00 92 1013.5
20260905064517 67 22 0.0 0.0 0.00 0.00 0.00 92 1013.5
20260905064020 67 22 0.0 0.0 0.00 0.00 0.00 92 1013.4
20260905063516 67 22 0.0 0.0 0.00 0.00 0.00 92 1013.4
20260905063015 67 22 0.0 0.0 0.00 0.00 0.00 91 1013.4
20260905062513 67 22 0.0 0.0 0.00 0.00 0.00 91 1013.2
20260905062013 68 22 0.0 0.0 0.00 0.00 0.00 91 1013.1
20260905061512 68 22 0.0 0.0 0.00 0.00 0.00 91 1013.1
20260905061011 68 22 0.0 0.0 0.00 0.00 0.00 91 1013.2
20260905060010 68 22 0.0 0.0 0.00 0.00 0.00 91 1013.0
20260905055509 68 22 0.0 0.0 0.00 0.00 0.00 90 1012.9
20260905055008 68 22 0.0 0.0 0.00 0.00 0.00 90 1012.8
20260905054508 68 22 0.0 0.0 0.00 0.00 0.00 90 1012.7
20260905054007 69 22 0.0 0.0 0.00 0.00 0.00 90 1012.7
20260905053507 69 22 0.0 0.0 0.00 0.00 0.00 90 1012.5
20260905053005 69 22 0.0 0.0 0.00 0.00 0.00 90 1012.5
20260905052505 69 22 0.0 0.0 0.00 0.00 0.00 89 1012.6
20260905052005 69 22 0.0 0.0 0.00 0.00 0.00 89 1012.6
20260905051506 69 22 0.0 0.0 0.00 0.00 0.00 89 1012.5
20260905051003 69 22 0.0 0.0 0.00 0.00 0.00 89 1012.6
20260905050004 70 22 0.0 0.0 0.00 0.00 0.00 88 1012.6
20260905045503 70 22 0.0 0.0 0.00 0.00 0.00 88 1012.6
20260905045002 70 22 0.0 0.0 0.00 0.00 0.00 88 1012.7
20260905044502 70 22 0.0 0.0 0.00 0.00 0.00 88 1012.6
20260905044100 70 22 0.0 0.0 0.00 0.00 0.00 87 1012.6
20260905043600 70 22 0.0 0.0 0.00 0.00 0.00 87 1012.4
20260905043059 71 22 0.0 0.0 0.00 0.00 0.00 87 1012.4
20260905042602 71 22 0.0 0.0 0.00 0.00 0.00 86 1012.5
20260905042059 71 22 0.0 0.0 0.00 0.00 0.00 86 1012.5
20260905041600 71 22 0.0 0.0 0.00 0.00 0.00 86 1012.5
20260905041056 71 22 0.0 0.0 0.00 0.00 0.00 85 1012.5
20260905040058 72 22 0.0 0.0 0.00 0.00 0.00 85 1012.6
20260905035555 72 22 0.0 0.0 0.00 0.00 0.00 84 1012.6
20260905035054 72 22 0.0 0.0 0.00 0.00 0.00 84 1012.6
20260905034554 72 22 0.0 0.0 0.00 0.00 0.00 84 1012.6
20260905034053 73 22 0.0 0.0 0.00 0.00 0.00 84 1012.6
20260905033552 73 22 0.0 0.0 0.00 0.00 0.00 83 1012.6
20260905033052 73 22 0.0 0.0 0.00 0.00 0.00 83 1012.6
20260905032551 73 22 0.0 0.0 0.00 0.00 0.00 83 1012.5
20260905032049 73 22 0.0 0.0 0.00 0.00 0.00 83 1012.3
20260905031553 74 22 0.0 0.0 0.00 0.00 0.00 82 1012.3
20260905031047 74 22 0.0 0.0 0.00 0.00 0.00 82 1012.4
20260905030049 74 19 0.0 0.0 0.00 0.00 0.00 82 1012.2
20260905025547 74 17 0.0 0.0 0.00 0.00 0.00 82 1012.1
20260905025046 74 14 0.0 0.0 0.00 0.00 0.00 81 1012.0
20260905024550 75 9 0.0 0.0 0.00 0.00 0.00 81 1011.8
20260905024044 75 9 0.0 0.0 0.00 0.00 0.00 81 1011.8
20260905023543 75 5 0.0 0.0 0.00 0.00 0.00 80 1011.7
20260905023043 75 355 0.0 0.0 0.00 0.00 0.00 80 1011.7
20260905022541 76 355 0.0 0.0 0.00 0.00 0.00 79 1011.6
20260905022041 76 355 0.0 0.0 0.00 0.00 0.00 79 1011.6
20260905021540 76 355 0.0 0.0 0.00 0.00 0.00 79 1011.6
20260905021039 76 355 0.0 0.0 0.00 0.00 0.00 79 1011.5
20260905020038 76 360 0.0 0.0 0.00 0.00 0.00 78 1011.5
20260905015538 77 360 0.0 0.0 0.00 0.00 0.00 78 1011.4
20260905015036 77 360 0.0 0.0 0.00 0.00 0.00 78 1011.3
20260905014536 77 355 0.0 0.0 0.00 0.00 0.00 77 1011.2
20260905014034 77 355 0.0 0.0 0.00 0.00 0.00 77 1011.2
20260905013537 77 360 0.0 0.0 0.00 0.00 0.00 77 1011.1
20260905013033 78 360 0.0 0.0 0.00 0.00 0.00 77 1011.0
20260905012531 78 350 0.0 0.0 0.00 0.00 0.00 76 1011.0
20260905012030 78 350 0.0 0.0 0.00 0.00 0.00 76 1010.9
20260905011528 78 350 0.0 0.0 0.00 0.00 0.00 76 1010.8
20260905011028 79 350 0.0 0.0 0.00 0.00 0.00 76 1010.7
20260905010032 79 348 0.0 0.0 0.00 0.00 0.00 75 1010.6
20260905005525 80 348 0.0 0.0 0.00 0.00 0.00 75 1010.6
20260905005025 80 348 0.0 0.0 0.00 0.00 0.00 75 1010.6
20260905004523 81 348 0.0 0.0 0.00 0.00 0.00 74 1010.5
20260905004021 81 348 0.0 0.0 0.00 0.00 0.00 74 1010.5
20260905003519 82 348 0.0 1.0 0.00 0.00 0.00 74 1010.4
20260905003018 82 348 0.0 0.0 0.00 0.00 0.00 73 1010.4
20260905002517 82 348 0.0 0.0 0.00 0.00 0.00 73 1010.5
20260905002016 83 348 0.0 0.0 0.00 0.00 0.00 73 1010.5
20260905001515 83 348 0.0 0.0 0.00 0.00 0.00 72 1010.4
20260905001016 84 348 0.0 0.0 0.00 0.00 0.00 72 1010.3
20260905000015 85 348 0.0 0.0 0.00 0.00 0.00 70 1010.2
20260904235513 85 348 0.0 0.0 0.00 0.00 0.00 71 1010.3
20260904235011 85 348 0.0 0.0 0.00 0.00 0.00 70 1010.3
20260904234511 85 348 0.0 0.0 0.00 0.00 0.00 69 1010.3
20260904234012 86 348 0.0 0.0 0.00 0.00 0.00 69 1010.3
20260904233510 86 348 0.0 0.0 0.00 0.00 0.00 69 1010.2
20260904233015 86 348 0.0 0.0 0.00 0.00 0.00 69 1010.2
20260904232510 86 334 0.0 0.0 0.00 0.00 0.00 69 1010.1
20260904232010 86 334 0.0 0.0 0.00 0.00 0.00 68 1010.1
20260904231509 87 334 0.0 0.0 0.00 0.00 0.00 67 1010.0
20260904231009 87 334 0.0 0.0 0.00 0.00 0.00 67 1010.1
20260904230014 87 334 0.0 0.0 0.00 0.00 0.00 66 1010.0
20260904225507 87 334 0.0 0.0 0.00 0.00 0.00 65 1009.9
20260904225010 87 334 0.0 0.0 0.00 0.00 0.00 66 1009.9
20260904224509 87 334 0.0 0.0 0.00 0.00 0.00 66 1009.9
20260904224006 87 326 0.0 0.0 0.00 0.00 0.00 67 1009.9
20260904223511 87 325 0.0 0.0 0.00 0.00 0.00 66 1009.8
20260904223006 87 336 0.0 0.0 0.00 0.00 0.00 66 1009.8
20260904222508 87 336 0.0 0.0 0.00 0.00 0.00 66 1009.7
20260904222005 88 336 0.0 0.0 0.00 0.00 0.00 67 1009.6
20260904221505 88 337 0.0 0.0 0.00 0.00 0.00 67 1009.6
20260904221005 88 336 0.0 0.0 0.00 0.00 0.00 67 1009.5
20260904220004 88 336 0.0 0.0 0.00 0.00 0.00 67 1009.4
20260904215504 88 336 0.0 0.0 0.00 0.00 0.00 67 1009.4
20260904215004 88 336 0.0 0.0 0.00 0.00 0.00 69 1009.4
20260904214513 88 339 0.0 0.0 0.00 0.00 0.00 68 1009.4
20260904214004 88 338 0.0 0.0 0.00 0.00 0.00 67 1009.4
20260904213504 88 340 0.0 0.0 0.00 0.00 0.00 67 1009.4
20260904213004 88 330 0.0 0.0 0.00 0.00 0.00 67 1009.3
20260904212504 88 330 0.0 0.0 0.00 0.00 0.00 68 1009.4
20260904212004 88 331 0.0 0.0 0.00 0.00 0.00 68 1009.4
20260904211503 88 330 0.0 0.0 0.00 0.00 0.00 68 1009.3
20260904211005 88 329 0.0 0.0 0.00 0.00 0.00 68 1009.4
20260904210004 88 355 0.0 0.0 0.00 0.00 0.00 69 1009.4
20260904205503 87 319 0.0 0.0 0.00 0.00 0.00 69 1009.4
20260904205004 87 9 0.0 0.0 0.00 0.00 0.00 69 1009.4
20260904204507 87 324 0.0 0.0 0.00 0.00 0.00 70 1009.4
20260904204004 87 323 0.0 0.0 0.00 0.00 0.00 69 1009.5
20260904203504 87 9 0.0 0.0 0.00 0.00 0.00 69 1009.4
20260904203003 87 5 0.0 0.0 0.00 0.00 0.00 70 1009.4
20260904202503 87 5 0.0 0.0 0.00 0.00 0.00 70 1009.4
20260904202002 87 323 0.0 0.0 0.00 0.00 0.00 70 1009.3
20260904201502 87 355 0.0 0.0 0.00 0.00 0.00 71 1009.3
20260904201003 87 350 0.0 0.0 0.00 0.00 0.00 70 1009.4
20260904200006 87 5 0.0 0.0 0.00 0.00 0.00 71 1009.5
20260904195504 87 17 0.0 0.0 0.00 0.00 0.00 71 1009.6
20260904195003 87 350 0.0 0.0 0.00 0.00 0.00 71 1009.5
20260904194503 86 350 0.0 0.0 0.00 0.00 0.00 71 1009.6
20260904194002 86 22 0.0 0.0 0.00 0.00 0.00 72 1009.6
20260904193503 86 34 0.0 0.0 0.00 0.00 0.00 72 1009.6
20260904193003 86 311 0.0 0.0 0.00 0.00 0.00 71 1009.5
20260904192502 86 309 0.0 0.0 0.00 0.01 0.00 72 1009.5
20260904192003 86 309 0.0 0.0 0.00 0.01 0.00 72 1009.5
20260904191501 86 298 0.0 0.0 0.00 0.01 0.00 72 1009.5
20260904191001 86 30 0.0 0.0 0.00 0.01 0.00 73 1009.6
20260904190002 86 360 0.0 0.0 0.00 0.01 0.00 73 1009.6
20260904185502 86 360 0.0 0.0 0.00 0.01 0.00 73 1009.6
20260904185002 86 316 0.0 0.0 0.00 0.01 0.00 71 1009.6
20260904184502 87 329 0.0 0.0 0.00 0.01 0.00 71 1009.7
20260904184002 86 327 0.0 0.0 0.00 0.01 0.00 73 1009.6
20260904183501 86 279 0.0 0.0 0.00 0.01 0.00 72 1009.6
20260904183001 86 276 0.0 0.0 0.00 0.01 0.00 73 1009.5
20260904182559 86 275 0.0 0.0 0.00 0.03 0.00 73 1009.5
20260904182059 86 286 0.0 0.0 0.00 0.03 0.00 72 1009.4
20260904181558 87 279 0.0 0.0 0.00 0.03 0.00 71 1009.4
20260904181056 87 302 0.0 0.0 0.00 0.03 0.00 71 1009.4
20260904180655 87 289 0.0 0.0 0.00 0.03 0.00 71 1009.4
20260904180056 87 292 0.0 0.0 0.00 0.03 0.00 71 1009.4
20260904175553 88 323 0.0 0.0 0.00 0.03 0.00 71 1009.3
20260904175053 88 309 0.0 0.0 0.00 0.03 0.00 70 1009.2
20260904174552 88 29 0.0 0.0 0.00 0.03 0.00 70 1009.1
20260904174052 88 321 0.0 0.0 0.00 0.03 0.00 70 1009.1
20260904173551 88 313 0.0 0.0 0.00 0.03 0.00 70 1009.2
20260904173052 89 29 0.0 0.0 0.00 0.03 0.00 69 1009.2
20260904172551 89 348 0.0 4.0 0.00 0.05 0.00 69 1009.1
20260904172051 89 325 1.0 4.0 0.00 0.05 0.00 68 1009.1
20260904171550 89 321 1.0 4.0 0.00 0.05 0.00 68 1009.1
20260904171052 90 329 0.0 5.0 0.00 0.05 0.00 68 1009.1
20260904170648 89 25 0.0 5.0 0.00 0.05 0.00 68 1009.0
20260904170049 89 24 1.0 5.0 0.00 0.05 0.00 68 1009.0
20260904165548 89 25 2.0 6.0 0.00 0.05 0.00 68 1009.0
20260904165047 89 40 3.0 6.0 0.00 0.05 0.00 68 1009.1
20260904164546 88 258 0.0 3.0 0.00 0.05 0.00 69 1009.1
20260904164044 88 257 0.0 3.0 0.00 0.05 0.00 70 1009.2
20260904163544 88 255 1.0 4.0 0.00 0.05 0.00 70 1009.2
20260904163042 88 255 1.0 4.0 0.00 0.05 0.00 70 1009.1
20260904162541 88 254 0.0 3.0 0.00 0.07 0.05 70 1009.1
20260904162040 87 254 0.0 5.0 0.00 0.07 0.05 71 1009.2
20260904161543 87 254 1.0 5.0 0.00 0.07 0.05 71 1009.1
20260904161040 87 231 0.0 2.0 0.00 0.07 0.05 71 1009.0
20260904160640 87 230 0.0 4.0 0.00 0.07 0.05 72 1008.9
20260904160039 87 230 0.0 4.0 0.00 0.07 0.05 72 1009.0
20260904155537 86 230 1.0 4.0 0.00 0.07 0.05 72 1009.0
20260904155036 86 230 0.0 4.0 0.00 0.07 0.05 73 1009.0
20260904154537 86 230 1.0 5.0 0.00 0.07 0.05 73 1009.0
20260904154035 86 186 0.0 5.0 0.00 0.07 0.05 73 1009.0
20260904153535 86 186 0.0 5.0 0.00 0.07 0.05 73 1008.9
20260904153045 85 188 0.0 4.0 0.00 0.07 0.05 74 1008.8
20260904152532 85 166 0.0 2.0 0.00 0.07 0.05 75 1008.8
20260904152031 84 166 0.0 1.0 0.00 0.07 0.05 76 1008.8
20260904151530 84 166 0.0 5.0 0.00 0.07 0.05 76 1008.8
20260904151034 84 166 2.0 5.0 0.00 0.07 0.05 76 1008.8
20260904150630 83 137 0.0 3.0 0.00 0.07 0.05 77 1008.8
20260904150030 83 137 0.0 3.0 0.00 0.07 0.05 78 1008.8
20260904145530 83 134 0.0 2.0 0.00 0.07 0.05 79 1008.8
20260904145030 82 132 0.0 1.0 0.00 0.07 0.05 80 1008.9
20260904144531 82 132 0.0 1.0 0.00 0.07 0.05 81 1008.8
20260904144029 81 132 0.0 0.0 0.00 0.07 0.05 82 1008.7
20260904143529 81 132 0.0 0.0 0.00 0.07 0.05 82 1008.7
20260904143029 81 132 0.0 0.0 0.00 0.07 0.05 83 1008.7
20260904142529 80 132 0.0 0.0 0.00 0.07 0.05 84 1008.7
20260904142032 80 132 0.0 0.0 0.00 0.07 0.05 85 1008.8
20260904141529 79 132 0.0 0.0 0.00 0.07 0.05 86 1008.8
20260904141028 79 132 0.0 0.0 0.00 0.07 0.05 87 1008.8
20260904140631 79 132 0.0 3.0 0.00 0.07 0.05 88 1008.7
20260904140030 78 132 0.0 3.0 0.00 0.07 0.05 89 1008.7
20260904135530 78 132 0.0 3.0 0.00 0.07 0.05 90 1008.8
20260904135031 78 130 0.0 0.0 0.00 0.07 0.05 90 1008.8
20260904134531 77 130 0.0 0.0 0.00 0.07 0.05 91 1008.9
20260904134031 77 130 0.0 0.0 0.00 0.07 0.05 92 1009.0
20260904133531 76 129 0.0 0.0 0.00 0.07 0.05 92 1009.1
20260904133030 76 126 0.0 1.0 0.00 0.07 0.05 93 1009.0
20260904132530 75 126 0.0 0.0 0.00 0.07 0.05 93 1008.9
20260904132030 75 126 0.0 0.0 0.00 0.07 0.05 93 1008.8
20260904131529 75 126 0.0 0.0 0.00 0.07 0.05 93 1008.7
20260904131029 75 126 0.0 0.0 0.00 0.07 0.05 93 1008.7
20260904130632 74 125 0.0 0.0 0.00 0.07 0.05 93 1008.5
20260904130040 74 125 0.0 0.0 0.00 0.07 0.05 93 1008.5
20260904125528 74 125 0.0 0.0 0.00 0.07 0.05 93 1008.6
20260904125028 73 125 0.0 0.0 0.00 0.07 0.05 93 1008.5
20260904124528 73 125 0.0 0.0 0.00 0.07 0.05 93 1008.4
20260904124031 73 126 0.0 0.0 0.00 0.07 0.05 93 1008.4
20260904123530 73 125 0.0 0.0 0.00 0.07 0.05 93 1008.3
20260904123027 73 126 0.0 0.0 0.00 0.07 0.05 93 1008.2
20260904122527 73 126 0.0 0.0 0.00 0.15 0.05 93 1008.3
20260904122027 73 145 0.0 0.0 0.00 0.15 0.05 93 1008.2
20260904121527 73 145 0.0 0.0 0.00 0.15 0.05 93 1008.2
20260904121026 73 146 0.0 0.0 0.00 0.15 0.05 93 1008.1
20260904120626 73 146 0.0 0.0 0.00 0.15 0.05 93 1008.2